Погода в Ассадулаеве

Россия / Астраханская область     46°14′51″N   47°56′27″E
темп.,
°C
ветер,
м/с
пор.,
м/с
влажн.,
%
обл.,
%
осадки,
мм/ч
давл.,
гПа
погр.,
м
21 октября, чт
чт2101:00+5зсз47575 0.0 1028172
04:00+4зсз35665 0.0 1029129
07:00+3з3567100 0.0 103096
10:00+8зюз564951 0.0 1030764
13:00+10зюз6735100 0.0 10281165
16:00+12юз57277 0.0 10271143
19:00+9ююз473628 0.0 1026197
22:00+8ююз5115437 0.0 1026267
22 октября, пт
пт2201:00+8ююз51258100 0.0 1024294
04:00+7ююз410746 0.0 1023213
07:00+7ююз47885 0.0 1023127
10:00+13ююз58715 0.0 1023456
13:00+18ююз56434 0.0 1022844
16:00+18ююз56430 0.0 1021726
19:00+13ю46724 0.0 1021123
22:00+11ю348414 0.0 102174
23 октября, сб
сб2301:00+11ю33851 0.0 102133
04:00+10ююв22860 0.0 102115
07:00+10ююв33953 0.0 102135
10:00+16ююв45800 0.0 1021366
13:00+20ююв55540 0.0 1020896
16:00+19ююв55600 0.0 1019845
19:00+13ююв46830 0.0 1019154
22:00+11ююв35880 0.0 1019101
24 октября, вс
вс2401:00+10юв12920 0.0 101823
04:00+9з00940 0.0 101710
07:00+10з12910 0.0 101611
10:00+15зюз346617 0.0 1017287
13:00+18з5540100 0.0 1016695
16:00+18зсз5553100 0.0 10151097
19:00+14ссз5871100 0.0 1016302
22:00+13ссз5878100 0.0 1016462
25 октября, пн
пн2501:00+12ссз3574100 0.0 1016232
04:00+11с3571100 0.0 1015203
07:00+12с4752100 0.0 1015512
10:00+9с71075100 0.3 1016667
13:00+7с6884100 4.8 1017550
16:00+7с6885100 8.9 1018983
19:00+7ссз5884100 2.2 1021838
22:00+7ссз497879 3.0 1022786